Location: Gwatt
(46.7204°N, 7.6223°E)
Time: 08:46:00
(UTC+00:00)

Vanguard 2 - Pass Details

Date: 22 January 2021
Orbit: 552 x 2938 km, 32.9° (Epoch: 24 February)

Event Time Altitude Azimuth Distance (km) Brightness Sun altitude
Rises 20:20:41 0° 251° (WSW) 3,271 11.4 -41.1°
Reaches altitude 10° 20:23:35 10° 232° (SW) 2,609 10.5 -41.5°
Enters shadow 20:23:54 11° 229° (SW) 2,557 10.4 -41.6°
Maximum altitude 20:27:46 18° 189° (S) 2,455 - -42.2°
Drops below altitude 10° 20:33:18 10° 150° (SSE) 3,612 - -43.1°
Sets 20:38:23 0° 135° (SE) 5,110 - -43.9°
